Regional Weather Roundup
Issued by NWS Little Rock, AR

Home | Current Version | Previous Version | Text Only | Print | Product List | Glossary Off
Versions: 1 2 3 4 5 6 7 8 9 10 11 12 13 14 15 16 17 18 19 20 21 22 23 24 25 26 27 28 29 30 31 32 33 34 35 36 37 38 39 40 41 42 43 44 45 46 47 48 49 50

000
ASUS44 KLZK 270505
RWRLZK

WEATHER ROUNDUP FOR ARKANSAS
NATIONAL WEATHER SERVICE LITTLE ROCK AR
1200 AM CDT TUE SEP 27 2016

NOTE: "FAIR" INDICATES FEW OR NO CLOUDS BELOW 12,000 FEET WITH NO
SIGNIFICANT WEATHER AND/OR OBSTRUCTIONS TO VISIBILITY.

ARZ001-003-010-029-270600-
NORTHWEST ARKANSAS

CITY           SKY/WX    TMP DP  RH WIND       PRES   REMARKS
FAYETTEVILLE   CLOUDY    49  49 100 CALM      30.18S
FORT SMITH     CLOUDY    64  46  52 NE3       30.14F
HARRISON       CLOUDY    51  45  79 W5        30.18R
BENTONVILLE    CLOUDY    52  45  76 CALM      30.17F
ROGERS         CLOUDY    51  49  92 CALM      30.18F
SILOAM SPGS    CLOUDY    50  39  66 CALM      30.19R
HIGHFILL       MOCLDY    54  44  69 CALM      30.18R
$$

ARZ004-005-016-270600-
NORTH CENTRAL ARKANSAS

CITY           SKY/WX    TMP DP  RH WIND       PRES   REMARKS
BATESVILLE     CLOUDY    55  52  88 W3        30.14S
FLIPPIN        CLEAR     54  46  76 CALM      30.13F
MTN HOME       PTCLDY    53  46  77 CALM      30.15S
$$

ARZ040-041-270600-
WEST CENTRAL ARKANSAS

CITY           SKY/WX    TMP DP  RH WIND       PRES   REMARKS
MENA           CLOUDY    59  59 100 CALM      30.15F
MOUNT IDA      PTCLDY    62  60  93 CALM      30.11F
$$

ARZ009-017-025-026-028-270600-
NORTHEAST ARKANSAS

CITY           SKY/WX    TMP DP  RH WIND       PRES   REMARKS
CORNING          N/A     55  52  88 NW3       30.12F
JONESBORO      CLEAR     60  50  69 N6        30.11S
NEWPORT        CLEAR     58  56  93 N5        30.13R
WALNUT RIDGE   CLEAR     57  48  72 N3        30.12S
BLYTHEVILLE    CLEAR     59  56  89 CALM      30.11F
$$

ARZ022-023-033-042-044-270600-
CENTRAL ARKANSAS

CITY           SKY/WX    TMP DP  RH WIND       PRES   REMARKS
LITTLE ROCK    PTCLDY    65  58  78 SW3       30.12F
JACKSONVILLE   CLEAR     60  56  86 W1        30.12S
SEARCY         CLEAR     58  57  97 CALM      30.14S
HOT SPRINGS    CLOUDY    66  58  75 CALM      30.12F
RUSSELLVILLE   PTCLDY    60  51  72 NW3       30.13F
$$

ARZ036-270600-
EAST ARKANSAS

CITY           SKY/WX    TMP DP  RH WIND       PRES   REMARKS
WEST MEMPHIS   CLOUDY    58  54  86 CALM      30.09F
$$

ARZ050-053-066-070-073-270600-
SOUTHWEST ARKANSAS

CITY           SKY/WX    TMP DP  RH WIND       PRES   REMARKS
ARKADELPHIA    CLOUDY    66  62  87 CALM      30.12F
TEXARKANA      CLOUDY    68  57  68 NE3       30.11F
EL DORADO      CLOUDY    63  56  78 CALM      30.11S
DE QUEEN       CLOUDY    67  63  87 CALM      30.11F
$$

ARZ056-057-069-270600-
SOUTHEAST ARKANSAS

CITY           SKY/WX    TMP DP  RH WIND       PRES   REMARKS
PINE BLUFF     CLOUDY    62  56  80 N3        30.10F
STUTTGART      MOCLDY    61  52  72 NW6       30.11F
MONTICELLO     CLOUDY    65  55  70 VRB3      30.10F

$$





USA.gov is the U.S. government's official web portal to all federal, state and local government web resources and services.